EW1806 Weather Reports


Display with metric or nautical units.
time (UTC)temp
F
wind
direction
speed
MPH
gust
MPH
rain 1hr
in
rain 24hr
in
rain mn
in
humidity
%
barometer
mb
20260507021046 59 93 1.0 2.0 0.00 0.00 0.00 75 1015.2
20260507020553 59 93 0.0 2.0 0.00 0.00 0.00 75 1015.0
20260507020106 59 93 1.0 7.0 0.00 0.00 0.00 74 1015.0
20260507015533 59 74 3.0 7.0 0.00 0.00 0.00 74 1014.9
20260507015038 59 80 3.0 10.0 0.00 0.00 0.00 73 1014.9
20260507014557 60 67 5.0 10.0 0.00 0.00 0.00 72 1014.9
20260507014040 60 75 5.0 10.0 0.00 0.00 0.00 71 1014.9
20260507013553 60 63 5.0 9.0 0.00 0.00 0.00 70 1015.0
20260507013058 61 86 4.0 7.0 0.00 0.00 0.00 69 1015.0
20260507012552 61 60 2.0 6.0 0.00 0.00 0.00 68 1015.0
20260507012053 61 55 3.0 6.0 0.00 0.00 0.00 66 1014.9
20260507011547 61 128 3.0 4.0 0.00 0.00 0.00 65 1014.8
20260507011111 62 71 2.0 6.0 0.00 0.00 0.00 64 1014.7
20260507010536 62 57 4.0 10.0 0.00 0.00 0.00 63 1014.7
20260507010106 62 87 5.0 10.0 0.00 0.00 0.00 61 1014.8
20260507005539 63 71 4.0 9.0 0.00 0.00 0.00 58 1014.7
20260507005044 63 22 3.0 5.0 0.00 0.00 0.00 58 1015.0
20260507004534 64 307 2.0 7.0 0.00 0.00 0.00 56 1015.1
20260507004036 64 289 4.0 12.0 0.00 0.00 0.00 56 1015.2
20260507003540 63 316 5.0 12.0 0.00 0.00 0.00 57 1015.1
20260507003030 63 329 5.0 10.0 0.00 0.00 0.00 57 1015.0
20260507002549 63 348 4.0 10.0 0.00 0.00 0.00 57 1014.9
20260507002030 63 339 5.0 10.0 0.00 0.00 0.00 58 1015.0
20260507001602 63 287 5.0 13.0 0.00 0.00 0.00 58 1015.1
20260507001110 62 12 7.0 15.0 0.00 0.00 0.00 59 1015.2
20260507000538 62 355 7.0 15.0 0.00 0.00 0.00 60 1015.3
20260507000030 62 59 5.0 11.0 0.00 0.00 0.00 60 1015.4
20260506235548 62 37 6.0 11.0 0.00 0.00 0.00 61 1015.4
20260506235039 62 360 6.0 10.0 0.00 0.00 0.00 62 1015.4
20260506234553 62 15 5.0 9.0 0.00 0.00 0.00 62 1015.6
20260506234037 62 21 3.0 4.0 0.00 0.00 0.00 63 1016.0
20260506233527 62 70 0.0 4.0 0.00 0.00 0.00 63 1016.1
20260506233035 62 73 2.0 4.0 0.00 0.00 0.00 64 1016.2
20260506232551 62 24 2.0 3.0 0.00 0.00 0.00 65 1016.3
20260506232040 61 113 2.0 3.0 0.00 0.00 0.00 66 1016.4
20260506231553 61 137 1.0 3.0 0.00 0.00 0.00 65 1016.4
20260506231036 62 137 2.0 3.0 0.00 0.00 0.00 64 1016.4
20260506230531 62 137 1.0 3.0 0.00 0.00 0.00 63 1016.3
20260506230035 63 48 2.0 3.0 0.00 0.00 0.00 62 1016.3
20260506225548 63 46 2.0 5.0 0.00 0.00 0.00 62 1016.3
20260506225057 63 55 2.0 6.0 0.00 0.00 0.00 62 1016.2
20260506224611 63 33 3.0 6.0 0.00 0.00 0.00 63 1016.2
20260506224029 62 30 2.0 6.0 0.00 0.00 0.00 64 1016.3
20260506223539 62 69 2.0 5.0 0.00 0.00 0.00 66 1016.2
20260506223046 63 61 2.0 7.0 0.00 0.00 0.00 66 1016.3
20260506222538 63 62 3.0 5.0 0.00 0.00 0.00 67 1016.4
20260506222043 63 68 2.0 5.0 0.00 0.00 0.00 67 1016.4
20260506221536 63 67 3.0 5.0 0.00 0.00 0.00 68 1016.4
20260506221101 63 79 3.0 5.0 0.00 0.00 0.00 67 1016.4
20260506220530 63 75 4.0 5.0 0.00 0.00 0.00 67 1016.3
20260506220032 63 65 3.0 5.0 0.00 0.00 0.00 67 1016.3
20260506215546 63 67 2.0 7.0 0.00 0.00 0.00 67 1016.2
20260506215034 63 62 3.0 5.0 0.00 0.00 0.00 66 1016.0
20260506214539 63 88 3.0 7.0 0.00 0.00 0.00 65 1016.0
20260506214034 63 94 4.0 7.0 0.00 0.00 0.00 65 1015.8
20260506213549 63 77 4.0 5.0 0.00 0.00 0.00 65 1015.7
20260506213036 63 82 2.0 4.0 0.00 0.00 0.00 65 1015.6
20260506212537 63 82 2.0 7.0 0.00 0.00 0.00 64 1015.5
20260506212041 63 84 3.0 8.0 0.00 0.00 0.00 64 1015.5
20260506211534 63 80 4.0 8.0 0.00 0.00 0.00 64 1015.4
20260506211058 63 90 4.0 8.0 0.00 0.00 0.00 63 1015.4
20260506210549 64 101 5.0 7.0 0.00 0.00 0.00 62 1015.4
20260506210112 64 106 2.0 3.0 0.00 0.00 0.00 58 1015.6
20260506205554 64 257 1.0 5.0 0.00 0.00 0.00 58 1015.5
20260506205101 65 257 1.0 7.0 0.00 0.00 0.00 57 1015.5
20260506204552 66 255 3.0 7.0 0.00 0.00 0.00 56 1015.4
20260506204041 66 344 4.0 7.0 0.00 0.00 0.00 57 1015.3
20260506203558 66 349 3.0 5.0 0.00 0.00 0.00 57 1015.3
20260506203037 66 44 2.0 4.0 0.00 0.00 0.00 57 1015.3
20260506202554 66 67 2.0 4.0 0.00 0.00 0.00 57 1015.3
20260506202037 66 69 2.0 7.0 0.00 0.00 0.00 57 1015.3
20260506201549 66 67 4.0 7.0 0.00 0.00 0.00 57 1015.4
20260506201057 66 53 3.0 6.0 0.00 0.00 0.00 58 1015.6
20260506200549 66 36 3.0 6.0 0.00 0.00 0.00 58 1015.8
20260506200047 66 19 3.0 6.0 0.00 0.00 0.00 58 1015.8
20260506195542 66 21 2.0 4.0 0.00 0.00 0.00 58 1015.9
20260506195051 66 48 1.0 5.0 0.00 0.00 0.00 58 1015.9
20260506194534 66 50 3.0 7.0 0.00 0.00 0.00 58 1015.8
20260506194035 66 67 4.0 7.0 0.00 0.00 0.00 58 1015.9
20260506193529 67 63 2.0 5.0 0.00 0.00 0.00 58 1015.9
20260506193041 67 75 1.0 3.0 0.00 0.00 0.00 58 1015.9
20260506192530 67 75 1.0 3.0 0.00 0.00 0.00 58 1015.9
20260506192035 67 75 1.0 3.0 0.00 0.00 0.00 58 1016.0
20260506191546 67 75 2.0 3.0 0.00 0.00 0.00 58 1015.9
20260506191028 67 75 1.0 3.0 0.00 0.00 0.00 58 1015.9
20260506190549 67 75 2.0 3.0 0.00 0.00 0.00 58 1015.9
20260506190053 67 75 1.0 4.0 0.00 0.00 0.00 58 1015.8
20260506185541 67 75 2.0 4.0 0.00 0.00 0.00 58 1015.7
20260506185049 67 71 2.0 3.0 0.00 0.00 0.00 58 1015.6
20260506184653 67 71 1.0 3.0 0.00 0.00 0.00 58 1015.6
20260506184027 67 71 2.0 3.0 0.00 0.00 0.00 59 1015.5
20260506183540 67 71 1.0 3.0 0.00 0.00 0.00 59 1015.5
20260506183027 67 73 2.0 5.0 0.00 0.00 0.00 60 1015.5
20260506182536 67 59 2.0 5.0 0.00 0.00 0.00 60 1015.5
20260506182041 68 95 2.0 3.0 0.00 0.00 0.00 62 1015.5
20260506181542 68 96 2.0 3.0 0.00 0.00 0.00 61 1015.4
20260506181047 68 12 2.0 3.0 0.00 0.00 0.00 60 1015.4
20260506180556 68 11 1.0 2.0 0.00 0.00 0.00 60 1015.4
20260506180040 68 11 2.0 3.0 0.00 0.00 0.00 60 1015.3
20260506175545 68 11 1.0 3.0 0.00 0.00 0.00 60 1015.2
20260506175039 68 5 1.0 3.0 0.00 0.00 0.00 62 1015.2
20260506174527 69 5 2.0 4.0 0.00 0.00 0.00 60 1015.2
20260506174040 69 5 2.0 4.0 0.00 0.00 0.00 58 1015.2
20260506173528 70 338 2.0 4.0 0.00 0.00 0.00 57 1015.2
20260506173034 70 288 2.0 5.0 0.00 0.00 0.00 56 1015.1
20260506172548 70 285 2.0 3.0 0.00 0.00 0.00 54 1015.0
20260506172038 70 296 2.0 3.0 0.00 0.00 0.00 52 1014.9
20260506171534 70 267 1.0 3.0 0.00 0.00 0.00 51 1014.8
20260506171037 70 267 2.0 3.0 0.00 0.00 0.00 52 1014.8
20260506170530 71 267 1.0 3.0 0.00 0.00 0.00 51 1014.8
20260506170026 71 267 1.0 3.0 0.00 0.00 0.00 48 1014.7
20260506165530 71 275 2.0 3.0 0.00 0.00 0.00 51 1014.7
20260506165049 71 195 1.0 4.0 0.00 0.00 0.00 48 1014.6
20260506164603 71 195 2.0 4.0 0.00 0.00 0.00 48 1014.6
20260506164031 72 244 2.0 4.0 0.00 0.00 0.00 47 1014.5
20260506163538 72 231 2.0 5.0 0.00 0.00 0.00 47 1014.5
20260506163124 72 254 4.0 6.0 0.00 0.00 0.00 46 1014.4
20260506162530 72 237 4.0 7.0 0.00 0.00 0.00 45 1014.4
20260506162102 72 232 3.0 7.0 0.00 0.00 0.00 46 1014.3
20260506161537 73 242 2.0 5.0 0.00 0.00 0.00 46 1014.2
20260506161025 73 187 3.0 5.0 0.00 0.00 0.00 46 1014.2
20260506160537 73 231 2.0 5.0 0.00 0.00 0.00 48 1014.2
20260506160027 73 219 4.0 5.0 0.00 0.00 0.00 48 1014.1
20260506155532 73 208 3.0 5.0 0.00 0.00 0.00 46 1014.1
20260506155027 73 235 3.0 5.0 0.00 0.00 0.00 45 1014.1
20260506154535 73 207 3.0 5.0 0.00 0.00 0.00 46 1014.1
20260506154032 73 205 3.0 4.0 0.00 0.00 0.00 44 1014.1
20260506153546 73 212 3.0 5.0 0.00 0.00 0.00 44 1014.2
20260506153056 74 186 4.0 5.0 0.00 0.00 0.00 44 1014.2
20260506152533 73 227 3.0 6.0 0.00 0.00 0.00 44 1014.2
20260506152022 73 200 4.0 6.0 0.00 0.00 0.00 44 1014.2
20260506151542 73 221 3.0 6.0 0.00 0.00 0.00 44 1014.2
20260506151033 73 202 3.0 6.0 0.00 0.00 0.00 44 1014.3
20260506150546 74 200 4.0 6.0 0.00 0.00 0.00 43 1014.3
20260506150054 74 190 3.0 6.0 0.00 0.00 0.00 43 1014.4
20260506145628 74 258 3.0 6.0 0.00 0.00 0.00 42 1014.4
20260506145030 74 201 3.0 5.0 0.00 0.00 0.00 41 1014.3
20260506144538 74 189 3.0 7.0 0.00 0.00 0.00 41 1014.4
20260506144103 74 190 4.0 7.0 0.00 0.00 0.00 41 1014.6
20260506143537 75 197 4.0 7.0 0.00 0.00 0.00 40 1014.6
20260506143044 74 202 5.0 7.0 0.00 0.00 0.00 39 1014.6
20260506142536 75 186 4.0 7.0 0.00 0.00 0.00 39 1014.6
20260506142027 75 199 4.0 7.0 0.00 0.00 0.00 40 1014.6
20260506141534 75 209 3.0 7.0 0.00 0.00 0.00 40 1014.6
20260506141040 74 194 3.0 8.0 0.00 0.00 0.00 41 1014.5
20260506140556 74 196 6.0 8.0 0.00 0.00 0.00 41 1014.6
20260506140026 75 231 4.0 9.0 0.00 0.00 0.00 41 1014.6
20260506135537 74 186 3.0 9.0 0.00 0.00 0.00 41 1014.6
20260506135106 75 199 5.0 9.0 0.00 0.00 0.00 39 1014.7
20260506134546 76 173 2.0 10.0 0.00 0.00 0.00 41 1014.7
20260506134054 75 194 6.0 10.0 0.00 0.00 0.00 40 1014.9
20260506133547 76 181 3.0 8.0 0.00 0.00 0.00 40 1014.9
20260506133029 75 182 4.0 8.0 0.00 0.00 0.00 41 1014.9
20260506132546 75 181 5.0 9.0 0.00 0.00 0.00 40 1014.9
20260506132033 76 189 5.0 9.0 0.00 0.00 0.00 40 1015.0
20260506131537 75 155 5.0 7.0 0.00 0.00 0.00 38 1015.0
20260506131100 76 185 4.0 9.0 0.00 0.00 0.00 38 1015.0
20260506130532 76 176 5.0 9.0 0.00 0.00 0.00 37 1015.0
20260506130039 76 173 3.0 9.0 0.00 0.00 0.00 38 1015.1
20260506125531 75 170 5.0 10.0 0.00 0.00 0.00 38 1015.1
20260506125041 75 178 6.0 10.0 0.00 0.00 0.00 38 1015.1
20260506124529 75 194 3.0 12.0 0.00 0.00 0.00 39 1015.1
20260506124035 74 223 5.0 12.0 0.00 0.00 0.00 40 1015.2
20260506123534 74 217 7.0 9.0 0.00 0.00 0.00 40 1015.3
20260506123026 74 173 5.0 9.0 0.00 0.00 0.00 38 1015.3
20260506122546 74 194 6.0 10.0 0.00 0.00 0.00 39 1015.3
20260506122039 74 191 7.0 10.0 0.00 0.00 0.00 41 1015.3
20260506121532 74 186 3.0 10.0 0.00 0.00 0.00 44 1015.3
20260506121032 73 213 6.0 10.0 0.00 0.00 0.00 47 1015.4
20260506120537 74 178 6.0 8.0 0.00 0.00 0.00 45 1015.4
20260506120023 74 213 3.0 9.0 0.00 0.00 0.00 46 1015.4
20260506115541 73 194 5.0 10.0 0.00 0.00 0.00 48 1015.5
20260506115122 75 190 6.0 9.0 0.00 0.00 0.00 45 1015.6
20260506114530 75 236 2.0 7.0 0.00 0.00 0.00 44 1015.6
20260506114028 73 156 3.0 8.0 0.00 0.00 0.00 47 1015.6
20260506113542 73 203 5.0 8.0 0.00 0.00 0.00 49 1015.7
20260506113037 73 200 4.0 7.0 0.00 0.00 0.00 51 1015.7
20260506112549 73 180 4.0 9.0 0.00 0.00 0.00 48 1015.7
20260506112035 73 168 5.0 9.0 0.00 0.00 0.00 50 1015.8
20260506111527 72 171 5.0 9.0 0.00 0.00 0.00 52 1015.7
20260506111037 72 186 3.0 11.0 0.00 0.00 0.00 58 1015.7
20260506110530 70 187 7.0 11.0 0.00 0.00 0.00 59 1015.7
20260506110035 71 185 7.0 9.0 0.00 0.00 0.00 57 1015.7
20260506105609 72 218 5.0 9.0 0.00 0.00 0.00 57 1015.6
20260506105056 71 211 6.0 8.0 0.00 0.00 0.00 56 1015.6
20260506104525 71 204 6.0 9.0 0.00 0.00 0.00 51 1015.6
20260506104039 71 191 5.0 7.0 0.00 0.00 0.00 51 1015.6
20260506103540 71 199 6.0 7.0 0.00 0.00 0.00 51 1015.6
20260506103028 72 200 4.0 7.0 0.00 0.00 0.00 49 1015.7
20260506102535 72 173 3.0 7.0 0.00 0.00 0.00 48 1015.6
20260506102051 71 194 3.0 7.0 0.00 0.00 0.00 49 1015.7
20260506101541 72 200 4.0 7.0 0.00 0.00 0.00 47 1015.8
20260506101028 72 183 3.0 5.0 0.00 0.00 0.00 50 1015.8
20260506100535 72 180 3.0 5.0 0.00 0.00 0.00 52 1015.8
20260506100103 71 161 3.0 5.0 0.00 0.00 0.00 52 1015.9
20260506095557 71 166 2.0 6.0 0.00 0.00 0.00 53 1015.9
20260506095025 71 131 4.0 8.0 0.00 0.00 0.00 57 1015.9
20260506094537 70 188 5.0 8.0 0.00 0.00 0.00 60 1016.0
20260506094055 70 202 4.0 8.0 0.00 0.00 0.00 60 1016.1
20260506093608 70 344 3.0 8.0 0.00 0.00 0.00 61 1016.0
20260506093038 70 195 6.0 9.0 0.00 0.00 0.00 58 1016.1
20260506092612 69 180 4.0 8.0 0.00 0.00 0.00 59 1016.1
20260506092041 69 238 5.0 8.0 0.00 0.00 0.00 57 1016.1
20260506091529 70 226 6.0 8.0 0.00 0.00 0.00 55 1016.1
20260506091047 71 220 4.0 7.0 0.00 0.00 0.00 53 1016.0
20260506090539 71 240 4.0 7.0 0.00 0.00 0.00 50 1015.9
20260506090032 70 166 3.0 7.0 0.00 0.00 0.00 45 1015.8
20260506085539 70 225 4.0 6.0 0.00 0.00 0.00 45 1015.8
20260506085035 70 160 3.0 8.0 0.00 0.00 0.00 47 1015.7
20260506084548 71 177 6.0 8.0 0.00 0.00 0.00 47 1015.7
20260506084056 71 175 2.0 5.0 0.00 0.00 0.00 50 1015.6
20260506083547 70 177 2.0 5.0 0.00 0.00 0.00 49 1015.7
20260506083031 70 191 3.0 5.0 0.00 0.00 0.00 47 1015.8
20260506082547 70 159 3.0 6.0 0.00 0.00 0.00 45 1015.7
20260506082106 70 158 3.0 6.0 0.00 0.00 0.00 43 1015.7
20260506081533 70 169 4.0 7.0 0.00 0.00 0.00 41 1015.7
20260506081026 70 131 3.0 7.0 0.00 0.00 0.00 41 1015.6
20260506080543 70 219 3.0 5.0 0.00 0.00 0.00 42 1015.6
20260506073025 69 129 2.0 4.0 0.00 0.00 0.00 44 1015.5
20260506072605 69 130 2.0 5.0 0.00 0.00 0.00 43 1015.5
20260506072036 69 166 3.0 5.0 0.00 0.00 0.00 43 1015.5
20260506071552 69 132 2.0 5.0 0.00 0.00 0.00 45 1015.5
20260506071101 69 143 2.0 5.0 0.00 0.00 0.00 48 1015.5
20260506070558 68 183 1.0 4.0 0.00 0.00 0.00 50 1015.5
20260506062030 64 139 1.0 3.0 0.00 0.00 0.00 60 1015.8
20260506061533 64 139 0.0 3.0 0.00 0.00 0.00 61 1015.8
20260506061046 64 139 2.0 3.0 0.00 0.00 0.00 60 1015.8
20260506060546 64 139 1.0 4.0 0.00 0.00 0.00 60 1015.7
20260506051045 62 96 1.0 3.0 0.00 0.00 0.00 56 1015.3
20260506050555 62 96 1.0 2.0 0.00 0.00 0.00 55 1015.4
20260506045040 61 96 1.0 2.0 0.00 0.00 0.00 52 1015.1
20260506044557 61 96 1.0 2.0 0.00 0.00 0.00 49 1015.1
20260506044030 60 96 0.0 1.0 0.00 0.00 0.00 49 1015.1
20260506043534 60 96 0.0 3.0 0.00 0.00 0.00 51 1015.1
20260506043049 60 96 1.0 3.0 0.00 0.00 0.00 50 1015.1
20260506042600 60 97 1.0 3.0 0.00 0.00 0.00 50 1015.0
20260506042028 60 98 1.0 5.0 0.00 0.00 0.00 48 1015.0
20260506041536 60 98 2.0 5.0 0.00 0.00 0.00 47 1015.0
20260506041040 61 102 3.0 8.0 0.00 0.00 0.00 45 1015.0
20260506040551 61 48 4.0 8.0 0.00 0.00 0.00 45 1015.0
20260506040058 60 83 4.0 6.0 0.00 0.00 0.00 45 1014.9
20260506035530 60 16 3.0 6.0 0.00 0.00 0.00 45 1014.8
20260506035033 60 49 3.0 6.0 0.00 0.00 0.00 45 1014.8
20260506034548 60 38 2.0 7.0 0.00 0.00 0.00 45 1014.8
20260506034109 60 51 3.0 7.0 0.00 0.00 0.00 45 1014.8
20260506033540 60 31 4.0 9.0 0.00 0.00 0.00 45 1014.8
20260506033028 61 65 4.0 9.0 0.00 0.00 0.00 44 1014.8
20260506032543 61 38 4.0 11.0 0.00 0.00 0.00 44 1014.8
20260506032049 61 72 5.0 11.0 0.00 0.00 0.00 43 1014.9
20260506031534 61 53 6.0 12.0 0.00 0.00 0.00 44 1015.0
20260506031036 61 44 6.0 10.0 0.00 0.00 0.00 45 1015.0
20260506030604 60 57 4.0 8.0 0.00 0.00 0.00 45 1014.9
20260506030031 60 27 3.0 7.0 0.00 0.00 0.00 46 1014.9
20260506025538 60 58 3.0 6.0 0.00 0.00 0.00 47 1014.9
20260506025107 60 32 2.0 4.0 0.00 0.00 0.00 48 1015.0
20260506024547 60 28 2.0 3.0 0.00 0.00 0.00 50 1015.0
20260506024038 60 80 0.0 2.0 0.00 0.00 0.00 50 1015.0
20260506023543 60 80 1.0 2.0 0.00 0.00 0.00 51 1015.0
20260506023036 60 80 2.0 2.0 0.00 0.00 0.00 50 1015.0
20260506022540 60 80 1.0 4.0 0.00 0.00 0.00 51 1015.1
20260506022046 60 80 2.0 5.0 0.00 0.00 0.00 50 1015.1
20260506021541 60 98 3.0 6.0 0.00 0.00 0.00 49 1015.2